Location: *
(44.1392°N, 4.8079°E)
Time: 07:54:36
(UTC+00:00)

DELTA 2 R/B (1) - Pass Details

Date: 21 June 2021
Orbit: 789 x 803 km, 39.6° (Epoch: 01 August)

Event Time Altitude Azimuth Distance (km) Brightness Sun altitude
Rises 03:09:05 0° 271° (W) 3,277 6.3 -7.6°
Reaches altitude 10° 03:11:40 10° 265° (W) 2,348 5.6 -7.2°
Maximum altitude 03:16:51 42° 195° (SSW) 1,106 4.0 -6.5°
Drops below altitude 10° 03:22:03 10° 126° (SE) 2,350 6.2 -5.8°
Sets 03:24:38 0° 119° (ESE) 3,280 7.1 -5.5°
